This is the latest recevied weather packets stored in our database for station/object DK4DAX-2. If no packets are shown the sender has not sent any weather packets the latest 10 day(s).
| Time | Temp. | Humidity | Pressure | Rain* | Wind** | Luminosity | Snow |
|---|---|---|---|---|---|---|---|
| 1787944503 | 19.44° C | 70% | 1008.8 hPa | 0 mm | - | - | - |
| 1787943603 | 19.44° C | 71% | 1008.7 hPa | 0 mm | - | - | - |
| 1787942703 | 19.44° C | 72% | 1008.4 hPa | 0 mm | - | - | - |
| 1787941804 | 19.44° C | 73% | 1008 hPa | 0 mm | - | - | - |
| 1787940903 | 19.44° C | 72% | 1007.8 hPa | 0 mm | - | - | - |
| 1787940003 | 20° C | 70% | 1007.7 hPa | 0 mm | - | - | - |
| 1787939104 | 21.11° C | 60% | 1007.8 hPa | 0 mm | - | - | - |
| 1787938203 | 21.67° C | 53% | 1007.2 hPa | 0 mm | - | - | - |
| 1787937303 | 23.33° C | 43% | 1007.1 hPa | 0 mm | - | - | - |
| 1787936404 | 23.89° C | 42% | 1006.5 hPa | 0 mm | - | - | - |
| 1787935503 | 24.44° C | 37% | 1006.6 hPa | 0 mm | - | - | - |
| 1787934603 | 25° C | 36% | 1006.7 hPa | 0 mm | - | - | - |
| 1787933703 | 25° C | 34% | 1006.9 hPa | 0 mm | - | - | - |
| 1787932804 | 25.56° C | 34% | 1006.6 hPa | 0 mm | - | - | - |
| 1787931903 | 25° C | 33% | 1006.6 hPa | 0 mm | - | - | - |
| 1787931003 | 25.56° C | 32% | 1006.7 hPa | 0 mm | - | - | - |
| 1787930104 | 26.11° C | 31% | 1006.6 hPa | 0 mm | - | - | - |
| 1787929203 | 26.11° C | 33% | 1006.4 hPa | 0 mm | - | - | - |
| 1787928303 | 26.67° C | 33% | 1006 hPa | 0 mm | - | - | - |
| 1787927404 | 27.78° C | 31% | 1006.1 hPa | 0 mm | - | - | - |
| 1787926503 | 29.44° C | 31% | 1006.4 hPa | 0 mm | - | - | - |
| 1787925603 | 29.44° C | 31% | 1006.3 hPa | 0 mm | - | - | - |
| 1787924704 | 28.89° C | 33% | 1006.6 hPa | 0 mm | - | - | - |
| 1787923803 | 31.67° C | 32% | 1006 hPa | 0 mm | - | - | - |
| 1787922903 | 31.67° C | 38% | 1006.5 hPa | 0 mm | - | - | - |
* Rain latest hour (hover to see other rain measurements)
** Current wind speed in m/s (hover to see current wind gust speed)